EW4075 Weather Reports


time (UTC)temp
F
wind
direction
speed
knots
gust
knots
rain 1hr
in
rain 24hr
in
rain mn
in
humidity
%
barometer
mb
20260504214502 74 44 0.9 6.1 0.00 0.00 0.00 34 1010.7
20260504213001 74 89 0.0 5.2 0.00 0.00 0.00 35 1010.7
20260504211616 74 100 0.9 5.2 0.00 0.00 0.00 35 1010.7
20260504210059 74 92 0.9 4.3 0.00 0.00 0.00 35 1010.7
20260504204603 74 62 0.9 5.2 0.00 0.00 0.00 35 1010.8
20260504203110 75 78 0.0 4.3 0.00 0.00 0.00 35 1010.7
20260504201600 75 295 0.9 3.5 0.00 0.00 0.00 36 1011.0
20260504200055 75 121 0.9 5.2 0.00 0.00 0.00 34 1011.0
20260504194554 75 109 0.9 6.1 0.00 0.00 0.00 34 1011.1
20260504193051 75 52 0.0 5.2 0.00 0.00 0.00 35 1011.3
20260504191548 74 41 0.0 3.5 0.00 0.00 0.00 34 1011.5
20260504190045 73 275 0.0 3.5 0.00 0.00 0.00 34 1011.6
20260504184542 73 55 0.9 7.8 0.00 0.00 0.00 36 1011.8
20260504183041 73 84 0.9 3.5 0.00 0.00 0.00 36 1012.0
20260504181538 73 130 0.0 6.1 0.00 0.00 0.00 34 1012.3
20260504180036 72 289 0.9 5.2 0.00 0.00 0.00 36 1012.4
20260504174532 72 254 0.9 7.0 0.00 0.00 0.00 35 1012.7
20260504173029 71 292 1.7 6.1 0.00 0.00 0.00 37 1012.9
20260504171526 70 329 0.0 3.5 0.00 0.00 0.00 37 1013.2
20260504081502 45 257 0.0 0.0 0.00 0.00 0.00 63 1015.8
20260504080109 45 257 0.0 0.9 0.00 0.00 0.00 63 1015.8
20260504044541 48 257 0.0 0.9 0.00 0.00 0.00 56 1015.7
20260504043044 48 257 0.0 0.9 0.00 0.00 0.00 56 1015.6
20260504041537 48 257 0.0 0.9 0.00 0.00 0.00 56 1015.4
20260504040039 48 257 0.0 0.9 0.00 0.00 0.00 55 1015.3
20260504034536 48 257 0.0 0.9 0.00 0.00 0.00 54 1015.2
20260504033038 49 257 0.0 0.9 0.00 0.00 0.00 54 1015.1
20260504031538 49 257 0.0 0.9 0.00 0.00 0.00 54 1015.1
20260504030035 50 257 0.0 0.9 0.00 0.00 0.00 53 1015.1
20260504024531 50 257 0.0 0.0 0.00 0.00 0.00 52 1015.0
20260504023032 51 257 0.0 0.0 0.00 0.00 0.00 50 1015.2
20260504021531 51 257 0.0 0.9 0.00 0.00 0.00 49 1015.1
20260504020031 52 257 0.0 0.0 0.00 0.00 0.00 48 1015.1
20260504014530 52 257 0.0 0.9 0.00 0.00 0.00 47 1014.9
20260504013035 53 257 0.0 0.9 0.00 0.00 0.00 45 1014.9
20260504011530 54 257 0.0 0.9 0.00 0.00 0.00 44 1014.8
20260504010029 55 257 0.0 0.0 0.00 0.00 0.00 43 1014.6
20260504004530 56 257 0.0 0.9 0.00 0.00 0.00 41 1014.5
20260504003038 56 257 0.0 0.9 0.00 0.00 0.00 40 1014.2
20260504001528 57 258 0.0 1.7 0.00 0.00 0.00 38 1014.0
20260504000050 58 257 0.0 2.6 0.00 0.00 0.00 36 1014.0
20260503234527 59 267 0.9 3.5 0.00 0.00 0.00 35 1013.7
20260503233026 60 261 0.9 3.5 0.00 0.00 0.00 34 1013.6
20260503231526 60 245 0.9 7.0 0.00 0.00 0.00 33 1013.5
20260503230026 61 279 1.7 5.2 0.00 0.00 0.00 32 1013.4
20260503224524 62 259 0.9 5.2 0.00 0.00 0.00 32 1013.4
20260503223030 62 308 1.7 6.1 0.00 0.00 0.00 31 1013.4
20260503221523 63 282 2.6 7.8 0.00 0.00 0.00 29 1013.4
20260503220023 63 250 0.9 7.8 0.00 0.00 0.00 30 1013.5